Date String (YYYY-MM-DD hh:mm:ss) UTC,Instrument flags,absolute air pressure of the measurement (hPa),sample flow rate (lpm),inlet stack bypass flow (lpm),air temperature of the measurement (°C),ambient temperature measured by the external sensor (°C),aerosol sample conditioner tube jacket temperature (°C),OPC LED temperature (°C),internal box temperature (°C),relative humidity of the measurement (%),span deviation,mass concentration of particles derived from Lorenz-Mie calculation of OPC scattering (μg/m³),mass concentration of particles derived from Lorenz-Mie calculation of OPC scattering (μg/m³),mass concentration of particles derived from Lorenz-Mie calculation of OPC scattering (μg/m³)
DateTimeUTC,F1_M11,P_M11,Q1_M11,Q2_M11,T1_M11,T2_M11,T3_M11,T4_M11,T5_M11,U1_M11,ZSPAN_M11,X0_M11,X2_M11,X1_M11
2023-12-17 20:00:00,SystemResetWarning,0832.6,5.00,000.00,026.4,025.7,000.0,034.5,027.9,7.5,0000.0,0005.64,0002.52,0002.02
2023-12-17 20:01:00,SystemResetWarning,0832.7,5.00,000.00,026.5,025.7,000.0,034.5,028.0,7.5,0000.0,0005.60,0002.53,0002.04
2023-12-17 20:02:00,SystemResetWarning,0832.7,5.00,000.00,026.5,025.7,000.0,034.5,028.0,7.9,0000.0,0005.55,0002.51,0002.02
2023-12-17 20:03:00,SystemResetWarning,0832.7,5.00,000.00,026.5,025.8,000.0,034.6,028.0,8.0,0000.0,0005.45,0002.49,0001.99
2023-12-17 20:04:00,SystemResetWarning,0832.7,5.00,000.00,026.5,025.8,000.0,034.6,028.0,7.8,0000.0,0005.45,0002.48,0001.98
2023-12-17 20:05:00,SystemResetWarning,0832.7,5.00,000.00,026.6,025.8,000.0,034.6,028.0,7.9,0000.0,0005.51,0002.48,0001.96
2023-12-17 20:06:00,SystemResetWarning,0832.7,5.00,000.00,026.6,025.8,000.0,034.6,028.1,7.9,0000.0,0005.41,0002.51,0001.97
2023-12-17 20:07:00,SystemResetWarning,0832.6,4.98,000.00,026.6,024.6,000.0,034.6,028.1,7.8,0000.0,0005.19,0002.56,0002.02
2023-12-17 20:08:00,SystemResetWarning,0832.6,5.01,000.00,026.5,023.1,000.0,034.6,027.9,7.8,0000.0,0005.09,0002.60,0002.06
2023-12-17 20:09:00,SystemResetWarning,0832.7,5.01,000.00,026.4,023.0,000.0,034.6,027.5,7.6,0000.0,0004.00,0002.65,0002.10
2023-12-17 20:10:00,SystemResetWarning,0832.6,5.00,000.00,026.3,023.3,000.0,034.5,027.2,7.6,0000.0,0004.68,0002.70,0002.15
2023-12-17 20:11:00,SystemResetWarning,0832.7,5.00,000.00,026.2,023.6,000.0,034.5,027.2,7.9,0000.0,0004.72,0002.74,0002.22
2023-12-17 20:12:00,SystemResetWarning,0832.7,4.99,000.00,026.2,023.9,000.0,034.5,027.3,7.4,0000.0,0004.79,0002.80,0002.29
2023-12-17 20:13:00,SystemResetWarning,0832.7,4.99,000.00,026.1,024.2,000.0,034.5,027.4,7.3,0000.0,0005.30,0002.86,0002.38
2023-12-17 20:14:00,SystemResetWarning,0832.7,5.00,000.00,026.2,024.5,000.0,034.4,027.4,7.3,0000.0,0005.60,0002.90,0002.44
2023-12-17 20:15:00,SystemResetWarning,0832.7,5.01,000.00,026.2,024.7,000.0,034.4,027.5,7.4,0000.0,0005.66,0002.94,0002.47
2023-12-17 20:16:00,SystemResetWarning,0832.7,5.01,000.00,026.2,024.8,000.0,034.4,027.6,7.1,0000.0,0005.60,0002.92,0002.48
2023-12-17 20:17:00,SystemResetWarning,0832.7,4.99,000.00,026.2,025.0,000.0,034.4,027.6,6.8,0000.0,0005.37,0002.80,0002.44
2023-12-17 20:18:00,SystemResetWarning,0832.7,5.00,000.00,026.2,025.1,000.0,034.4,027.6,6.7,0000.0,0005.18,0002.69,0002.37
2023-12-17 20:19:00,SystemResetWarning,0832.8,5.00,000.00,026.2,025.2,000.0,034.4,027.7,6.6,0000.0,0005.05,0002.58,0002.29
2023-12-17 20:20:00,SystemResetWarning,0832.8,5.00,000.00,026.3,025.3,000.0,034.4,027.7,6.6,0000.0,0004.93,0002.47,0002.19
2023-12-17 20:21:00,SystemResetWarning,0832.7,5.00,000.00,026.3,025.4,000.0,034.4,027.8,6.7,0000.0,0003.99,0002.34,0002.06
2023-12-17 20:22:00,SystemResetWarning,0832.7,5.00,000.00,026.3,025.4,000.0,034.4,027.8,6.8,0000.0,0003.93,0002.21,0001.92
2023-12-17 20:23:00,SystemResetWarning,0832.7,5.00,000.00,026.4,025.5,000.0,034.5,027.8,6.7,0000.0,0004.33,0002.08,0001.79
2023-12-17 20:24:00,SystemResetWarning,0832.8,5.00,000.00,026.4,025.6,000.0,034.5,027.9,6.6,0000.0,0003.84,0001.92,0001.65
2023-12-17 20:25:00,SystemResetWarning,0832.8,5.00,000.00,026.4,025.6,000.0,034.5,027.9,6.4,0000.0,0003.85,0001.76,0001.52
2023-12-17 20:26:00,SystemResetWarning,0832.7,5.00,000.00,026.4,025.6,000.0,034.5,027.9,6.5,0000.0,0003.89,0001.65,0001.41
2023-12-17 20:27:00,SystemResetWarning,0832.7,5.00,000.00,026.5,025.7,000.0,034.5,028.0,6.8,0000.0,0003.74,0001.54,0001.33
2023-12-17 20:28:00,SystemResetWarning,0832.7,5.00,000.00,026.5,025.7,000.0,034.6,028.0,6.8,0000.0,0003.78,0001.48,0001.27
2023-12-17 20:29:00,SystemResetWarning,0832.9,5.00,000.00,026.5,025.8,000.0,034.6,028.0,6.7,0000.0,0003.78,0001.45,0001.22
2023-12-17 20:30:00,SystemResetWarning,0832.7,5.00,000.00,026.6,025.8,000.0,034.6,028.0,6.7,0000.0,0003.75,0001.42,0001.19
2023-12-17 20:31:00,SystemResetWarning,0832.8,4.99,000.00,026.6,025.5,000.0,034.6,028.1,6.7,0000.0,0003.75,0001.40,0001.17
2023-12-17 20:32:00,SystemResetWarning,0832.7,4.98,000.00,026.5,023.5,000.0,034.6,027.9,6.7,0000.0,0003.71,0001.38,0001.16
2023-12-17 20:33:00,SystemResetWarning,0832.6,5.01,000.00,026.4,022.0,000.0,034.5,027.6,6.6,0000.0,0003.61,0001.38,0001.16
2023-12-17 20:34:00,SystemResetWarning,0832.7,5.01,000.00,026.3,022.0,000.0,034.5,027.2,6.4,0000.0,0003.11,0001.40,0001.17
2023-12-17 20:35:00,SystemResetWarning,0832.7,5.00,000.00,026.1,022.4,000.0,034.4,026.8,6.5,0000.0,0003.18,0001.49,0001.19
2023-12-17 20:36:00,SystemResetWarning,0832.7,5.00,000.00,026.0,022.8,000.0,034.4,026.8,6.6,0000.0,0003.21,0001.56,0001.21
2023-12-17 20:37:00,SystemResetWarning,0832.6,4.99,000.00,025.9,023.3,000.0,034.3,026.9,6.6,0000.0,0003.28,0001.58,0001.22
2023-12-17 20:38:00,SystemResetWarning,0832.7,4.99,000.00,025.9,023.6,000.0,034.3,027.1,6.5,0000.0,0003.28,0001.57,0001.22
2023-12-17 20:39:00,SystemResetWarning,0832.6,5.01,000.00,025.9,023.9,000.0,034.3,027.1,6.5,0000.0,0003.13,0001.55,0001.20
2023-12-17 20:40:00,SystemResetWarning,0832.7,5.01,000.00,025.9,024.2,000.0,034.2,027.2,6.6,0000.0,0003.12,0001.52,0001.18
2023-12-17 20:41:00,SystemResetWarning,0832.7,4.99,000.00,025.9,024.4,000.0,034.2,027.3,6.5,0000.0,0003.54,0001.55,0001.17
2023-12-17 20:42:00,SystemResetWarning,0832.7,4.99,000.00,026.0,024.6,000.0,034.2,027.3,6.4,0000.0,0003.69,0001.56,0001.16
2023-12-17 20:43:00,SystemResetWarning,0832.7,5.00,000.00,026.0,024.7,000.0,034.2,027.4,6.4,0000.0,0003.55,0001.51,0001.12
2023-12-17 20:44:00,SystemResetWarning,0832.9,5.00,000.00,026.0,024.8,000.0,034.2,027.5,6.5,0000.0,0003.53,0001.47,0001.08
2023-12-17 20:45:00,SystemResetWarning,0832.8,5.00,000.00,026.0,025.0,000.0,034.2,027.5,6.4,0000.0,0003.46,0001.42,0001.03
2023-12-17 20:46:00,SystemResetWarning,0832.9,5.00,000.00,026.1,025.1,000.0,034.2,027.5,6.5,0000.0,0003.30,0001.33,0000.98
2023-12-17 20:47:00,SystemResetWarning,0832.7,4.99,000.00,026.1,025.1,000.0,034.2,027.6,6.5,0000.0,0002.90,0001.24,0000.94
2023-12-17 20:48:00,SystemResetWarning,0832.8,5.00,000.00,026.1,025.2,000.0,034.2,027.6,6.4,0000.0,0002.58,0001.20,0000.91
2023-12-17 20:49:00,SystemResetWarning,0832.8,5.00,000.00,026.2,025.3,000.0,034.3,027.7,6.3,0000.0,0002.65,0001.21,0000.88
2023-12-17 20:50:00,SystemResetWarning,0832.7,5.00,000.00,026.2,025.3,000.0,034.3,027.7,6.3,0000.0,0002.91,0001.20,0000.87
2023-12-17 20:51:00,SystemResetWarning,0832.8,4.99,000.00,026.2,025.4,000.0,034.3,027.7,6.3,0000.0,0002.93,0001.20,0000.85
2023-12-17 20:52:00,SystemResetWarning,0832.8,4.99,000.00,026.3,025.5,000.0,034.3,027.8,6.4,0000.0,0002.88,0001.18,0000.83
2023-12-17 20:53:00,SystemResetWarning,0832.8,5.02,000.00,026.3,025.5,000.0,034.3,027.8,6.5,0000.0,0003.03,0001.15,0000.82
2023-12-17 20:54:00,SystemResetWarning,0832.8,5.00,000.00,026.3,025.6,000.0,034.4,027.8,6.3,0000.0,0003.16,0001.20,0000.81
2023-12-17 20:55:00,SystemResetWarning,0832.8,4.99,000.00,026.4,025.6,000.0,034.4,027.9,6.3,0000.0,0003.13,0001.18,0000.79
2023-12-17 20:56:00,SystemResetWarning,0832.8,4.99,000.00,026.4,025.6,000.0,034.4,027.9,6.4,0000.0,0003.13,0001.17,0000.78
2023-12-17 20:57:00,SystemResetWarning,0832.8,5.00,000.00,026.4,025.7,000.0,034.4,027.9,6.4,0000.0,0003.03,0001.13,0000.76
2023-12-17 20:58:00,SystemResetWarning,0832.9,5.01,000.00,026.5,025.7,000.0,034.5,028.0,6.5,0000.0,0002.92,0001.12,0000.75
2023-12-17 20:59:00,SystemResetWarning,0833.0,5.01,000.00,026.5,025.7,000.0,034.5,028.0,6.5,0000.0,0002.74,0001.10,0000.73
